LiveATC.Net - Listen to live air traffic control over the Internet!


ICAO: KHOU  IATA: HOU   Airport: William P Hobby Airport
City: Houston   State/Province: Texas
Country: United States   Continent: North America
KHOU METAR Weather: KHOU 220853Z 06009KT 10SM BKN060 OVC160 10/04 A3026 RMK AO2 SLP251 T01000039 58012
KHOU Flight Activity (FlightAware)
KHOU Airport Info   (iFlightPlanner)
KHOU VFR Sectional Chart   (iFlightPlanner) 
KHOU IFR Low Chart   (iFlightPlanner) 

KHOU Gnd/Twr/App
Feed Status: DOWN
Last heard on: 2020-01-18 13:41:39 (3 days 19 hours 48 minutes ago)
Archive Access: KHOU Gnd/Twr/App
FacilityFrequency
Hobby Approach (Final)133.050
Hobby Ground121.900
Hobby Tower118.700

NOTICE

Unauthorized use prohibited. See LiveATC.net Terms of Service


Airport/ARTCC Code
Frequency Search
(e.g., 124.400, 128.75)
Site-wide search
 


Browse Feeds
Top 50 Feeds
Coverage Map
Bad Weather Areas

LiveATC FAQ
Offer LiveATC feed
Contact LiveATC.net
Press Inquiries

LiveATC on iPhone
LiveATC on Android

Windows Phone
Windows 8/10

LiveATC Mobile
(Mobile browser)

ATC Audio Archives
Interesting Recordings

LiveATC Forums


Home Page
About LiveATC.net
Make a Donation
Terms of Use
Privacy Policy

Canadian Air Freqs

AIRMETs/SIGMETs

FAA Airport Status
Nat'l Airspace Status
Arrival Demand Charts


Server Software By:
Icecast.org
Liquidsoap